Time,TemperatureF,DewpointF,PressureIn,WindDirection,WindDirectionDegrees,WindSpeedMPH,WindSpeedGustMPH,Humidity,HourlyPrecipIn,Conditions,Clouds,dailyrainin,SoftwareType,DateUTC
2013-05-25 00:02:00,44.0,38.0,30.35,NW,325,1.0,4.0,78,0.00,,,0.00,,2013-05-25 05:02:00,
2013-05-25 00:22:00,43.0,38.0,30.35,NW,323,0.0,2.0,81,0.00,,,0.00,,2013-05-25 05:22:00,
2013-05-25 00:32:00,43.0,38.0,30.35,North,9,0.0,1.0,81,0.00,,,0.00,,2013-05-25 05:32:00,
2013-05-25 00:42:00,44.0,38.0,30.34,NNW,341,2.0,3.0,78,0.00,,,0.00,,2013-05-25 05:42:00,
2013-05-25 00:43:00,43.0,38.0,30.35,North,9,0.0,1.0,81,0.00,,,0.00,,2013-05-25 05:43:00,
2013-05-25 00:52:00,44.0,38.0,30.34,NW,324,1.0,3.0,80,0.00,,,0.00,,2013-05-25 05:52:00,
2013-05-25 01:02:00,44.0,38.0,30.34,NNW,341,2.0,3.0,78,0.00,,,0.00,,2013-05-25 06:02:00,
2013-05-25 01:12:00,44.0,38.0,30.34,NNW,341,2.0,3.0,78,0.00,,,0.00,,2013-05-25 06:12:00,
2013-05-25 01:21:00,44.0,38.0,30.34,NNW,341,2.0,3.0,78,0.00,,,0.00,,2013-05-25 06:21:00,
2013-05-25 01:32:00,44.0,38.0,30.34,NNW,341,2.0,3.0,78,0.00,,,0.00,,2013-05-25 06:32:00,
2013-05-25 02:01:00,44.0,38.0,30.30,NNW,328,2.0,3.0,78,0.00,,,0.00,,2013-05-25 07:01:00,
2013-05-25 02:11:00,44.0,38.0,30.30,NNW,328,2.0,3.0,78,0.00,,,0.00,,2013-05-25 07:11:00,
2013-05-25 02:21:00,44.0,37.0,30.30,WNW,302,0.0,4.0,76,0.00,,,0.00,,2013-05-25 07:21:00,
2013-05-25 02:32:00,45.0,37.0,30.30,West,275,1.0,2.0,74,0.00,,,0.00,,2013-05-25 07:32:00,
2013-05-25 02:42:00,45.0,37.0,30.30,West,275,1.0,2.0,74,0.00,,,0.00,,2013-05-25 07:42:00,
2013-05-25 02:52:00,46.0,38.0,30.30,WNW,299,1.0,3.0,73,0.00,,,0.00,,2013-05-25 07:52:00,
2013-05-25 03:02:00,46.0,35.0,30.31,North,351,0.0,3.0,66,0.00,,,0.00,,2013-05-25 08:02:00,
2013-05-25 03:11:00,46.0,35.0,30.31,North,351,0.0,3.0,66,0.00,,,0.00,,2013-05-25 08:11:00,
2013-05-25 03:22:00,46.0,35.0,30.32,North,351,1.0,2.0,66,0.00,,,0.00,,2013-05-25 08:22:00,
2013-05-25 03:32:00,46.0,35.0,30.32,North,351,1.0,2.0,66,0.00,,,0.00,,2013-05-25 08:32:00,
2013-05-25 03:42:00,46.0,35.0,30.32,North,351,1.0,2.0,66,0.00,,,0.00,,2013-05-25 08:42:00,
2013-05-25 03:51:00,46.0,35.0,30.32,North,351,1.0,2.0,66,0.00,,,0.00,,2013-05-25 08:51:00,
2013-05-25 04:02:00,46.0,36.0,30.34,NW,314,1.0,3.0,69,0.00,,,0.00,,2013-05-25 09:02:00,
2013-05-25 04:11:00,46.0,36.0,30.34,NW,314,1.0,3.0,69,0.00,,,0.00,,2013-05-25 09:11:00,
2013-05-25 04:21:00,46.0,38.0,30.33,North,353,2.0,3.0,73,0.00,,,0.00,,2013-05-25 09:21:00,
2013-05-25 04:33:00,46.0,38.0,30.33,NNW,342,0.0,3.0,74,0.00,,,0.00,,2013-05-25 09:33:00,
2013-05-25 04:42:00,46.0,38.0,30.33,NNW,342,0.0,3.0,74,0.00,,,0.00,,2013-05-25 09:42:00,
2013-05-25 04:53:00,46.0,38.0,30.33,North,351,0.0,4.0,73,0.00,,,0.00,,2013-05-25 09:53:00,
2013-05-25 05:02:00,46.0,37.0,30.34,North,356,0.0,2.0,72,0.00,,,0.00,,2013-05-25 10:02:00,
2013-05-25 05:12:00,46.0,37.0,30.34,North,356,0.0,2.0,72,0.00,,,0.00,,2013-05-25 10:12:00,
2013-05-25 05:22:00,46.0,38.0,30.33,North,350,0.0,4.0,73,0.00,,,0.00,,2013-05-25 10:22:00,
2013-05-25 05:33:00,46.0,37.0,30.32,NE,42,2.0,4.0,72,0.00,,,0.00,,2013-05-25 10:33:00,
2013-05-25 05:42:00,46.0,37.0,30.32,NE,42,2.0,4.0,72,0.00,,,0.00,,2013-05-25 10:42:00,
2013-05-25 05:52:00,46.0,37.0,30.33,NNW,333,1.0,4.0,72,0.00,,,0.00,,2013-05-25 10:52:00,
2013-05-25 06:02:00,47.0,38.0,30.33,North,3,0.0,2.0,70,0.00,,,0.00,,2013-05-25 11:02:00,
2013-05-25 06:12:00,47.0,38.0,30.33,North,3,0.0,2.0,70,0.00,,,0.00,,2013-05-25 11:12:00,
2013-05-25 06:21:00,47.0,37.0,30.34,ENE,64,0.0,2.0,68,0.00,,,0.00,,2013-05-25 11:21:00,
2013-05-25 06:32:00,48.0,38.0,30.35,NE,37,1.0,3.0,67,0.00,,,0.00,,2013-05-25 11:32:00,
2013-05-25 06:41:00,48.0,38.0,30.35,NE,37,1.0,3.0,67,0.00,,,0.00,,2013-05-25 11:41:00,
2013-05-25 06:52:00,48.0,38.0,30.36,NE,40,0.0,2.0,68,0.00,,,0.00,,2013-05-25 11:52:00,
2013-05-25 07:01:00,48.0,38.0,30.36,NE,40,0.0,2.0,68,0.00,,,0.00,,2013-05-25 12:01:00,
2013-05-25 07:12:00,48.0,38.0,30.36,NE,40,0.0,2.0,68,0.00,,,0.00,,2013-05-25 12:12:00,
2013-05-25 07:22:00,49.0,39.0,30.37,East,100,0.0,2.0,68,0.00,,,0.00,,2013-05-25 12:22:00,
2013-05-25 07:32:00,50.0,38.0,30.37,ESE,119,1.0,3.0,64,0.00,,,0.00,,2013-05-25 12:32:00,
2013-05-25 07:42:00,50.0,38.0,30.37,ESE,119,1.0,3.0,64,0.00,,,0.00,,2013-05-25 12:42:00,
2013-05-25 07:52:00,51.0,39.0,30.37,SE,127,0.0,2.0,64,0.00,,,0.00,,2013-05-25 12:52:00,
2013-05-25 08:02:00,52.0,39.0,30.37,SE,132,0.0,2.0,61,0.00,,,0.00,,2013-05-25 13:02:00,
2013-05-25 08:11:00,52.0,39.0,30.37,SE,132,0.0,2.0,61,0.00,,,0.00,,2013-05-25 13:11:00,
2013-05-25 08:21:00,52.0,39.0,30.37,SE,132,0.0,2.0,61,0.00,,,0.00,,2013-05-25 13:21:00,
2013-05-25 08:32:00,53.0,39.0,30.37,NE,54,0.0,2.0,60,0.00,,,0.00,,2013-05-25 13:32:00,
2013-05-25 08:42:00,53.0,39.0,30.37,NE,54,0.0,2.0,60,0.00,,,0.00,,2013-05-25 13:42:00,
2013-05-25 08:52:00,54.0,39.0,30.37,ENE,78,1.0,2.0,57,0.00,,,0.00,,2013-05-25 13:52:00,
2013-05-25 09:02:00,55.0,39.0,30.38,SE,131,1.0,4.0,54,0.00,,,0.00,,2013-05-25 14:02:00,
2013-05-25 09:11:00,55.0,39.0,30.38,SE,131,1.0,4.0,54,0.00,,,0.00,,2013-05-25 14:11:00,
2013-05-25 09:22:00,55.0,39.0,30.37,ESE,117,1.0,4.0,55,0.00,,,0.00,,2013-05-25 14:22:00,
2013-05-25 09:32:00,55.0,39.0,30.37,SE,125,1.0,3.0,55,0.00,,,0.00,,2013-05-25 14:32:00,
2013-05-25 09:42:00,55.0,39.0,30.37,SE,125,1.0,3.0,55,0.00,,,0.00,,2013-05-25 14:42:00,
2013-05-25 09:52:00,56.0,40.0,30.37,East,88,1.0,3.0,54,0.00,,,0.00,,2013-05-25 14:52:00,
2013-05-25 10:01:00,56.0,40.0,30.37,East,88,1.0,3.0,54,0.00,,,0.00,,2013-05-25 15:01:00,
2013-05-25 10:11:00,56.0,40.0,30.37,East,88,1.0,3.0,54,0.00,,,0.00,,2013-05-25 15:11:00,
2013-05-25 10:22:00,57.0,40.0,30.37,NE,39,2.0,4.0,52,0.00,,,0.00,,2013-05-25 15:22:00,
2013-05-25 10:33:00,57.0,42.0,30.37,ENE,61,2.0,5.0,57,0.00,,,0.00,,2013-05-25 15:33:00,
2013-05-25 10:43:00,57.0,42.0,30.37,ENE,61,2.0,5.0,57,0.00,,,0.00,,2013-05-25 15:43:00,
2013-05-25 10:53:00,57.0,43.0,30.37,NE,54,1.0,4.0,59,0.00,,,0.00,,2013-05-25 15:53:00,
2013-05-25 11:03:00,57.0,41.0,30.37,NNE,31,1.0,7.0,54,0.00,,,0.00,,2013-05-25 16:03:00,
2013-05-25 11:12:00,57.0,41.0,30.37,NNE,31,1.0,7.0,54,0.00,,,0.00,,2013-05-25 16:12:00,
2013-05-25 11:23:00,58.0,39.0,30.37,ENE,70,1.0,4.0,50,0.00,,,0.00,,2013-05-25 16:23:00,
2013-05-25 11:32:00,58.0,39.0,30.37,ENE,70,1.0,4.0,50,0.00,,,0.00,,2013-05-25 16:32:00,
2013-05-25 11:42:00,58.0,39.0,30.37,ENE,70,1.0,4.0,50,0.00,,,0.00,,2013-05-25 16:42:00,
2013-05-25 11:52:00,58.0,37.0,30.36,East,82,2.0,6.0,46,0.00,,,0.00,,2013-05-25 16:52:00,
2013-05-25 12:02:00,59.0,38.0,30.36,ENE,67,2.0,4.0,45,0.00,,,0.00,,2013-05-25 17:02:00,
2013-05-25 12:11:00,59.0,38.0,30.36,ENE,67,2.0,4.0,45,0.00,,,0.00,,2013-05-25 17:11:00,
2013-05-25 12:22:00,59.0,38.0,30.36,ENE,67,2.0,4.0,45,0.00,,,0.00,,2013-05-25 17:22:00,
2013-05-25 12:32:00,60.0,39.0,30.36,ENE,58,1.0,4.0,46,0.00,,,0.00,,2013-05-25 17:32:00,
2013-05-25 12:42:00,60.0,39.0,30.36,ENE,58,1.0,4.0,46,0.00,,,0.00,,2013-05-25 17:42:00,
2013-05-25 12:52:00,59.0,38.0,30.35,ESE,104,2.0,8.0,45,0.00,,,0.00,,2013-05-25 17:52:00,
2013-05-25 13:01:00,59.0,37.0,30.35,ENE,70,2.0,6.0,43,0.00,,,0.00,,2013-05-25 18:01:00,
2013-05-25 13:11:00,59.0,37.0,30.35,ENE,70,2.0,6.0,43,0.00,,,0.00,,2013-05-25 18:11:00,
2013-05-25 13:21:00,59.0,38.0,30.35,ENE,70,2.0,7.0,46,0.00,,,0.00,,2013-05-25 18:21:00,
2013-05-25 13:32:00,59.0,38.0,30.35,ENE,70,2.0,7.0,46,0.00,,,0.00,,2013-05-25 18:32:00,
2013-05-25 13:42:00,59.0,38.0,30.35,ENE,70,2.0,7.0,46,0.00,,,0.00,,2013-05-25 18:42:00,
2013-05-25 13:52:00,62.0,38.0,30.34,East,92,2.0,6.0,41,0.00,,,0.00,,2013-05-25 18:52:00,
2013-05-25 14:01:00,61.0,38.0,30.32,East,87,2.0,6.0,42,0.00,,,0.00,,2013-05-25 19:01:00,
2013-05-25 14:11:00,61.0,38.0,30.32,East,87,2.0,6.0,42,0.00,,,0.00,,2013-05-25 19:11:00,
2013-05-25 14:21:00,62.0,37.0,30.32,ENE,65,2.0,6.0,39,0.00,,,0.00,,2013-05-25 19:21:00,
2013-05-25 14:32:00,62.0,39.0,30.32,East,83,2.0,6.0,43,0.00,,,0.00,,2013-05-25 19:32:00,
2013-05-25 14:42:00,62.0,39.0,30.32,East,83,2.0,6.0,43,0.00,,,0.00,,2013-05-25 19:42:00,
2013-05-25 14:52:00,62.0,39.0,30.32,East,83,2.0,5.0,43,0.00,,,0.00,,2013-05-25 19:52:00,
2013-05-25 15:02:00,62.0,37.0,30.32,ESE,102,2.0,9.0,39,0.00,,,0.00,,2013-05-25 20:02:00,
2013-05-25 15:11:00,62.0,37.0,30.32,ESE,102,2.0,9.0,39,0.00,,,0.00,,2013-05-25 20:11:00,
2013-05-25 15:21:00,62.0,37.0,30.32,ESE,102,2.0,9.0,39,0.00,,,0.00,,2013-05-25 20:21:00,
2013-05-25 15:32:00,62.0,37.0,30.32,ESE,102,2.0,9.0,39,0.00,,,0.00,,2013-05-25 20:32:00,
2013-05-25 15:42:00,62.0,37.0,30.32,ESE,102,2.0,9.0,39,0.00,,,0.00,,2013-05-25 20:42:00,
2013-05-25 15:52:00,63.0,35.0,30.32,East,93,3.0,5.0,35,0.00,,,0.00,,2013-05-25 20:52:00,
2013-05-25 16:02:00,63.0,35.0,30.32,East,93,3.0,5.0,35,0.00,,,0.00,,2013-05-25 21:02:00,
2013-05-25 16:11:00,63.0,35.0,30.32,East,93,3.0,5.0,35,0.00,,,0.00,,2013-05-25 21:11:00,
2013-05-25 16:21:00,64.0,37.0,30.31,East,93,2.0,5.0,37,0.00,,,0.00,,2013-05-25 21:21:00,
2013-05-25 16:33:00,64.0,35.0,30.31,NE,53,0.0,5.0,34,0.00,,,0.00,,2013-05-25 21:33:00,
2013-05-25 16:43:00,64.0,35.0,30.31,NE,53,0.0,5.0,34,0.00,,,0.00,,2013-05-25 21:43:00,
2013-05-25 16:53:00,63.0,35.0,30.31,NE,51,1.0,4.0,35,0.00,,,0.00,,2013-05-25 21:53:00,
2013-05-25 17:03:00,63.0,35.0,30.31,NE,51,1.0,4.0,35,0.00,,,0.00,,2013-05-25 22:03:00,
2013-05-25 17:12:00,63.0,35.0,30.31,NE,51,1.0,4.0,35,0.00,,,0.00,,2013-05-25 22:12:00,
2013-05-25 17:21:00,65.0,33.0,30.31,ENE,69,1.0,3.0,30,0.00,,,0.00,,2013-05-25 22:21:00,
2013-05-25 17:22:00,62.0,33.0,30.31,NNE,17,0.0,5.0,33,0.00,,,0.00,,2013-05-25 22:22:00,
2013-05-25 17:33:00,62.0,33.0,30.31,NNE,17,0.0,5.0,33,0.00,,,0.00,,2013-05-25 22:33:00,
2013-05-25 17:42:00,62.0,33.0,30.31,NNE,17,0.0,5.0,33,0.00,,,0.00,,2013-05-25 22:42:00,
2013-05-25 17:52:00,65.0,33.0,30.31,ENE,69,1.0,3.0,30,0.00,,,0.00,,2013-05-25 22:52:00,
2013-05-25 18:02:00,65.0,33.0,30.31,ENE,69,1.0,3.0,30,0.00,,,0.00,,2013-05-25 23:02:00,
2013-05-25 18:12:00,65.0,33.0,30.31,ENE,69,1.0,3.0,30,0.00,,,0.00,,2013-05-25 23:12:00,
2013-05-25 18:42:00,63.0,30.0,30.29,East,90,2.0,4.0,29,0.00,,,0.00,,2013-05-25 23:42:00,
2013-05-25 18:52:00,63.0,30.0,30.29,East,90,2.0,4.0,29,0.00,,,0.00,,2013-05-25 23:52:00,
2013-05-25 19:01:00,61.0,32.0,30.29,ENE,63,1.0,3.0,33,0.00,,,0.00,,2013-05-26 00:01:00,
2013-05-25 19:11:00,61.0,32.0,30.29,ENE,63,1.0,3.0,33,0.00,,,0.00,,2013-05-26 00:11:00,
2013-05-25 19:21:00,59.0,33.0,30.28,ENE,70,2.0,5.0,37,0.00,,,0.00,,2013-05-26 00:21:00,
2013-05-25 19:31:00,58.0,34.0,30.29,NNE,25,2.0,3.0,41,0.00,,,0.00,,2013-05-26 00:31:00,
2013-05-25 19:42:00,58.0,34.0,30.29,NNE,25,2.0,3.0,41,0.00,,,0.00,,2013-05-26 00:42:00,
2013-05-25 19:52:00,58.0,34.0,30.29,NNE,25,2.0,3.0,41,0.00,,,0.00,,2013-05-26 00:52:00,
2013-05-25 20:01:00,58.0,34.0,30.29,NNE,25,2.0,3.0,41,0.00,,,0.00,,2013-05-26 01:01:00,
2013-05-25 20:11:00,58.0,34.0,30.29,NNE,25,2.0,3.0,41,0.00,,,0.00,,2013-05-26 01:11:00,
2013-05-25 20:21:00,54.0,34.0,30.29,East,81,1.0,3.0,47,0.00,,,0.00,,2013-05-26 01:21:00,
2013-05-25 20:32:00,54.0,34.0,30.29,East,81,1.0,3.0,47,0.00,,,0.00,,2013-05-26 01:32:00,
2013-05-25 20:42:00,54.0,34.0,30.29,East,81,1.0,3.0,47,0.00,,,0.00,,2013-05-26 01:42:00,
2013-05-25 20:52:00,51.0,33.0,30.29,East,82,1.0,2.0,49,0.00,,,0.00,,2013-05-26 01:52:00,
2013-05-25 21:02:00,51.0,34.0,30.29,East,81,0.0,3.0,52,0.00,,,0.00,,2013-05-26 02:02:00,
2013-05-25 21:11:00,51.0,34.0,30.29,East,81,0.0,3.0,52,0.00,,,0.00,,2013-05-26 02:11:00,
2013-05-25 21:21:00,50.0,34.0,30.29,NNE,32,0.0,2.0,54,0.00,,,0.00,,2013-05-26 02:21:00,
2013-05-25 21:32:00,49.0,33.0,30.29,NNE,32,2.0,4.0,54,0.00,,,0.00,,2013-05-26 02:32:00,
2013-05-25 21:42:00,49.0,33.0,30.29,NNE,32,2.0,4.0,54,0.00,,,0.00,,2013-05-26 02:42:00,
2013-05-25 21:52:00,49.0,33.0,30.30,NE,47,0.0,3.0,54,0.00,,,0.00,,2013-05-26 02:52:00,
2013-05-25 22:01:00,48.0,34.0,30.30,NNW,331,1.0,4.0,58,0.00,,,0.00,,2013-05-26 03:01:00,
2013-05-25 22:11:00,48.0,34.0,30.30,NNW,331,1.0,4.0,58,0.00,,,0.00,,2013-05-26 03:11:00,
2013-05-25 22:21:00,48.0,34.0,30.30,NW,311,2.0,4.0,57,0.00,,,0.00,,2013-05-26 03:21:00,
2013-05-25 22:33:00,47.0,33.0,30.30,NW,316,2.0,4.0,59,0.00,,,0.00,,2013-05-26 03:33:00,
2013-05-25 22:42:00,47.0,33.0,30.30,NW,316,2.0,4.0,59,0.00,,,0.00,,2013-05-26 03:42:00,
2013-05-25 22:53:00,47.0,33.0,30.30,NW,322,0.0,4.0,59,0.00,,,0.00,,2013-05-26 03:53:00,
2013-05-25 23:02:00,46.0,33.0,30.30,NW,325,1.0,2.0,61,0.00,,,0.00,,2013-05-26 04:02:00,
2013-05-25 23:12:00,46.0,33.0,30.30,NW,325,1.0,2.0,61,0.00,,,0.00,,2013-05-26 04:12:00,
2013-05-25 23:23:00,46.0,35.0,30.30,NW,312,2.0,3.0,65,0.00,,,0.00,,2013-05-26 04:23:00,
2013-05-25 23:33:00,46.0,35.0,30.30,NW,320,2.0,4.0,66,0.00,,,0.00,,2013-05-26 04:33:00,
2013-05-25 23:42:00,46.0,35.0,30.30,NW,320,2.0,4.0,66,0.00,,,0.00,,2013-05-26 04:42:00,
2013-05-25 23:52:00,46.0,36.0,30.30,NNW,339,2.0,3.0,67,0.00,,,0.00,,2013-05-26 04:52:00,